Regional Weather Roundup
Issued by NWS Grand Forks, ND

Home | Current Version | Previous Version | Graphics & Text | Print | Product List | Glossary On
Versions: 1 2 3 4 5 6 7 8 9 10 11 12 13 14 15 16 17 18 19 20 21 22 23 24 25 26 27 28 29 30 31 32 33 34 35 36 37 38 39 40 41 42 43 44 45 46 47 48 49 50
000
ASUS43 KFGF 050610
RWRFGF
PRAIRIE TO PINES  WEATHER ROUNDUP
NATIONAL WEATHER SERVICE EASTERN NORTH DAKOTA/GRAND FORKS ND
100 AM CDT SAT SEP 05 2015

 **SATELLITE DATA USED TO AUGMENT SKY COVER AT AUTOMATED STATIONS**
 *****  WEATHER ACROSS EASTERN NORTH DAKOTA  *****

CITY           SKY/WX    TMP DP  RH WIND       PRES   REMARKS
GRAND FORKS    PTCLDY    65  64  97 N7        29.86R
6HR MIN TEMP:  65; 6HR MAX TEMP:  75;

GRAND FRKS AFB PTCLDY    64  64  99 NE7       29.87R
GRAND FRKS NWS   N/A     64 N/A N/A N3          N/A
DEVILS LAKE    CLOUDY    64  61  88 NE12      29.88R
6HR MIN TEMP:  64; 6HR MAX TEMP:  73;

FARGO          MOCLDY    74  68  81 SE8       29.83S
WAHPETON ARPT  PTCLDY    72  66  83 SE6       29.84S
$$

 ***** WEATHER ACROSS CENTRAL AND WESTERN NORTH DAKOTA  *****

CITY           SKY/WX    TMP DP  RH WIND       PRES   REMARKS
BISMARCK       CLEAR     69  65  86 NE5       29.83R
6HR MIN TEMP:  68; 6HR MAX TEMP:  87;

MINOT          LGT RAIN  61  59  93 N13       29.89S FOG
6HR MIN TEMP:  60; 6HR MAX TEMP:  66;

JAMESTOWN      FOG       65  64  97 E3        29.84R VSB 1
6HR MIN TEMP:  63; 6HR MAX TEMP:  78;

MINOT AFB      CLOUDY    61  61 100 N8        29.91R
GARRISON         N/A     64  61  90 NE12      29.87S
WILLISTON      CLOUDY    59  58  96 N14       29.92F FOG
6HR MIN TEMP:  59; 6HR MAX TEMP:  71;

DICKINSON      CLOUDY    62  60  93 NE14      29.86S FOG
6HR MIN TEMP:  62; 6HR MAX TEMP:  80;

HETTINGER      MOCLDY    68  61  78 NE9       29.85S
6HR MIN TEMP:  67; 6HR MAX TEMP:  90;

$$

 *****  OTHER AIRPORT OBSERVATIONS IN OUR AREA  *****

CITY           SKY/WX    TMP DP  RH WIND       PRES   REMARKS
WALHALLA       FAIR      61  61 100 MISG      29.91S
GRAFTON AIRPOR FOG       63  63 100 N12G18    29.88R VSB 3/4
VALLEY CITY AR FAIR      68  68 100 CALM      29.84S FOG
CANDO          NOT AVBL
CAVALIER APRT  CLOUDY    63  63 100 N10       29.89S FOG
GWINNER          N/A     68  68 100 NE5       29.84R
SHEYENNE NWR     N/A     68  67  98 E3        29.95
ROLLA          CLOUDY    57  57 100 N13       29.96R FOG
 ***** THE ABOVE OBSERVATIONS ARE NON NWS ARE NOT QUALITY
       CONTROLLED AND MAY MIS-REPORT RAIN FOR SNOW...
$$

  *****  WEATHER ACROSS NORTHERN MINNESOTA  *****

CITY           SKY/WX    TMP DP  RH WIND       PRES   REMARKS
FLAG ISLAND    CLOUDY    70  66  88 W5        29.88R
WARROAD        CLOUDY    68  64  88 CALM      29.90S
ROSEAU         MOCLDY    66  61  82 CALM      29.89S
HALLOCK        FOG       64  63  94 N8        29.88R VSB 1/2
THF RVR FALLS  MOCLDY    70  68  94 NE3       29.89R
6HR MIN TEMP:  68; 6HR MAX TEMP:  75;

BAUDETTE       CLOUDY    71  69  93 CALM      29.90R
6HR MIN TEMP:  71; 6HR MAX TEMP:  80; 6HR PCP:  0.16;

WASKISH        LGT RAIN  70  66  88 SE6       29.90S
CROOKSTON      CLEAR     70  68  94 NE6       29.87R
STEPHEN NDAWN    N/A     64  64 100 N10         N/A
GREENBUSH NDAW   N/A     64  64 100 NE3         N/A
$$
  *****  WEATHER ACROSS CENTRAL AND WEST MINNESOTA  *****

CITY           SKY/WX    TMP DP  RH WIND       PRES   REMARKS
FOSSTON        PTCLDY    70  66  88 SE6       29.89R
BEMIDJI        CLOUDY    70  68  94 SE8       29.91S
PARK RAPIDS    PTCLDY    73  71  93 SE8       29.91R
6HR MIN TEMP:  72; 6HR MAX TEMP:  81; 6HR PCP:  0.88;

ELBOW LAKE     FAIR      72  69  92 SE8       29.86S
6HR MIN TEMP:  72; 6HR MAX TEMP:  79;

WADENA         MOCLDY    72  70  94 SE6       29.90S
DETROIT LAKES  MOCLDY    75  66  73 S9        29.89S
MOORHEAD       CLEAR     73  68  83 S5        29.85R
FERGUS FALLS   PTCLDY    73  68  83 SE7       29.85R
MORRIS MN      MOCLDY    73  72  94 SE8       29.85S
STAPLES        PTCLDY    73  70  88 SE5       29.91S
$$
  *****  WEATHER ELSEWHERE ACROSS MINNESOTA  *****

CITY           SKY/WX    TMP DP  RH WIND       PRES   REMARKS
DULUTH         PTCLDY    66  62  87 SE9       29.99R
6HR MIN TEMP:  64; 6HR MAX TEMP:  71;

INTRNTL FALLS  LGT RAIN  67  66  97 VRB6      29.91F
6HR MIN TEMP:  67; 6HR MAX TEMP:  80; 6HR PCP:  0.23;

ELY            CLOUDY    68  61  77 W10G20    30.02R
CLOQUET        MOCLDY    63  59  88 CALM      29.98S
WHEATON        PTCLDY    70  66  88 SE3       29.85S
BRAINERD       MOCLDY    73  72  96 SE3       29.93R
6HR MIN TEMP:  72; 6HR MAX TEMP:  81; 6HR PCP: TRACE;

HIBBING        LGT RAIN  66  64  93 N6        29.99F
6HR MIN TEMP:  66; 6HR MAX TEMP:  74; 6HR PCP:  0.52;

ALEXANDRIA     HVY RAIN  72  69  90 SE9       29.91S FOG
6HR MIN TEMP:  72; 6HR MAX TEMP:  78; 6HR PCP: TRACE;

SAINT CLOUD    MOCLDY    75  67  76 SE6       29.92R
6HR MIN TEMP:  73; 6HR MAX TEMP:  83; 6HR PCP: TRACE;

MINNEAPOLIS    MOCLDY    77  70  79 SE7       29.94S
6HR MIN TEMP:  76; 6HR MAX TEMP:  85;

$$

  *****  WEATHER ACROSS SOUTH DAKOTA  *****

CITY           SKY/WX    TMP DP  RH WIND       PRES   REMARKS
SIOUX FALLS    PTCLDY    77  68  73 S18G24    29.86S
6HR MIN TEMP:  76; 6HR MAX TEMP:  82;

BROOKINGS      MOCLDY    75  68  78 SE14      29.88S
WATERTOWN      CLEAR     75  69  81 S7        29.85S
6HR MIN TEMP:  75; 6HR MAX TEMP:  80;

HURON          PTCLDY    75  71  87 SE10      29.79S
6HR MIN TEMP:  75; 6HR MAX TEMP:  83;

SISSETON         N/A     70  68  93 CALM      29.82S
ABERDEEN       PTCLDY    73  70  90 CALM      29.81R
6HR MIN TEMP:  72; 6HR MAX TEMP:  85;

MITCHELL       PTCLDY    75  71  87 SE7       29.80S
PIERRE         PTCLDY    70  66  87 E7        29.75S
6HR MIN TEMP:  69; 6HR MAX TEMP:  87;

MOBRIDGE       PTCLDY    73  72  96 E7        29.77F
RAPID CITY     PTCLDY    63  59  87 CALM      29.82R
6HR MIN TEMP:  63; 6HR MAX TEMP:  86;

$$

  *****  SOME WEATHER IN NEARBY STATES *****

CITY           SKY/WX    TMP DP  RH WIND       PRES   REMARKS
GLASGOW MT     CLOUDY    57  45  64 NE17      29.97R
6HR MIN TEMP:  57; 6HR MAX TEMP:  69;

GREAT FALLS MT CLOUDY    49  48  97 N12       29.98R
6HR MIN TEMP:  48; 6HR MAX TEMP:  51; 6HR PCP:  0.16;

CHEYENNE WY    CLOUDY    63  50  62 W8        30.01F
6HR MIN TEMP:  62; 6HR MAX TEMP:  72; 6HR PCP: TRACE;

SCOTTSBLUFF NE CLOUDY    67  55  65 E3        29.87F
6HR MIN TEMP:  67; 6HR MAX TEMP:  82;

OMAHA NE       MOCLDY    78  68  71 S15       29.92S
6HR MIN TEMP:  78; 6HR MAX TEMP:  86;

DES MOINES IA  CLOUDY    79  69  71 S7        29.96S
6HR MIN TEMP:  79; 6HR MAX TEMP:  87;

DAVENPORT IA   PTCLDY    73  70  90 S6        30.02S
6HR MIN TEMP:  72; 6HR MAX TEMP:  85;

CHICAGO IL     PTCLDY    72  67  84 E3        30.04F
6HR MIN TEMP:  70; 6HR MAX TEMP:  73;

EAU CLAIRE WI  PTCLDY    72  67  84 E6        29.99S
6HR MIN TEMP:  72; 6HR MAX TEMP:  81;

LA CROSSE WI   MOCLDY    77  72  84 E7        29.99R
6HR MIN TEMP:  77; 6HR MAX TEMP:  85;

$$

  *****  SOME NATIONAL WEATHER *****

CITY           SKY/WX    TMP DP  RH WIND       PRES   REMARKS
LA GUARDIA NY  PTCLDY    69  61  75 E10       30.22S
6HR MIN TEMP:  69; 6HR MAX TEMP:  80;

RALEIGH NC     PTCLDY    71  68  90 NE3       30.10R
6HR MIN TEMP:  71; 6HR MAX TEMP:  78;

ATLANTA GA     PTCLDY    77  67  71 NE8       30.04S
6HR MIN TEMP:  76; 6HR MAX TEMP:  84;

NEW ORLEANS LA PTCLDY    78  74  87 CALM      29.98S
6HR MIN TEMP:  78; 6HR MAX TEMP:  81;

OKLAHOMA CITY  PTCLDY    75  67  76 SE8       29.96S
6HR MIN TEMP:  74; 6HR MAX TEMP:  90;

ALBUQUERQUE NM CLOUDY    64  59  83 E7        30.16S
6HR MIN TEMP:  64; 6HR MAX TEMP:  70; 6HR PCP:  0.02;

SALT LAKE CITY PTCLDY    78  36  21 S17G26    29.78R
6HR MIN TEMP:  78; 6HR MAX TEMP:  87;



USA.gov is the U.S. government's official web portal to all federal, state and local government web resources and services.